Theta_e
324 324 325 326 327 327 327 328 329 331 333 333 333 333 334 334 334 334 334 334 334 334 334 334 334 333 332 332 331 332 333 333 332 333 333 333 333 332 332 331 331 331
321 322 323 324 325 325 325 325 326 328 330 332 333 333 333 333 333 334 334 334 334 334 333 333 333 333 332 332 331 331 333 332 331 332 332 332 332 332 332 331 331 330
319 320 321 322 322 323 323 324 325 326 328 330 332 332 332 332 332 333 333 334 334 333 332 332 332 332 333 332 330 330 332 332 330 331 331 331 331 332 331 331 330 330
318 318 319 320 320 320 321 322 324 325 326 327 329 330 331 332 332 332 332 332 333 333 332 331 331 332 332 332 330 329 331 333 332 331 332 332 331 331 332 331 331 331
317 317 318 319 319 319 319 320 321 322 323 324 326 327 329 330 331 331 331 332 332 332 331 331 331 331 331 331 330 329 330 331 332 331 331 332 330 329 330 330 332 332
316 316 317 317 317 317 318 318 319 319 320 322 323 325 327 329 330 331 331 331 331 330 330 329 330 330 330 330 330 330 330 331 331 331 331 330 330 330 329 328 330 332
315 315 315 316 316 316 317 317 316 317 318 320 321 323 325 327 329 330 330 329 329 329 328 327 328 330 329 329 330 330 330 330 330 330 330 329 329 331 330 328 330 332
315 315 314 314 315 315 315 315 315 315 315 317 319 320 322 325 327 328 328 328 327 327 327 326 327 328 329 329 330 330 329 329 328 329 329 328 328 330 329 329 330 331
314 314 314 314 314 314 314 314 314 313 313 314 317 318 320 321 322 323 324 324 325 325 326 326 326 328 328 329 330 329 329 329 328 329 329 328 328 328 328 328 329 330
314 314 314 313 313 313 313 313 313 312 311 311 313 315 316 318 318 318 320 322 323 325 327 327 326 328 328 329 329 328 328 329 329 329 328 328 328 328 328 327 328 329
313 313 313 313 312 312 312 312 312 311 310 310 311 312 313 314 315 316 318 321 323 325 327 327 327 327 327 327 328 328 327 327 327 328 329 328 328 328 328 328 328 329
312 312 312 312 311 311 311 311 311 310 309 309 309 309 310 311 312 313 315 318 321 323 324 324 323 323 324 325 326 327 327 326 326 327 328 328 328 328 328 329 329 329
311 311 311 311 311 311 310 310 310 309 309 308 307 308 309 309 309 310 312 314 316 317 317 318 318 319 321 321 321 323 324 326 326 327 327 328 328 328 328 328 329 328
310 310 310 310 310 310 310 309 309 309 308 308 307 306 306 307 308 308 309 311 313 313 312 313 314 314 315 315 316 318 321 324 326 326 327 327 328 328 328 328 327 328
309 309 309 309 309 309 309 308 308 308 308 308 307 306 305 305 305 306 306 307 309 310 310 310 309 308 307 309 311 314 317 321 324 325 326 327 327 327 328 327 327 327
308 308 308 308 308 308 308 308 308 308 307 307 307 306 305 304 304 304 304 304 305 306 307 307 305 303 304 306 309 311 314 318 322 324 325 326 326 327 327 327 327 327
307 307 307 308 307 307 307 307 307 307 307 307 307 306 306 305 304 303 303 303 302 302 303 303 302 301 303 306 308 309 312 315 319 322 325 326 326 327 327 327 327 326
306 307 307 307 306 306 306 306 307 306 306 306 307 306 306 305 305 304 303 302 302 301 301 301 300 300 302 305 307 309 311 313 317 320 323 325 326 328 328 328 326 326
306 306 306 306 306 306 306 306 306 306 306 306 306 306 306 306 305 304 303 302 302 301 300 300 299 299 301 303 305 308 310 313 316 318 321 323 325 326 328 328 326 325
305 305 305 305 305 305 305 305 305 305 305 305 305 305 305 305 305 305 304 303 302 301 300 300 299 298 299 301 304 306 308 311 314 317 319 320 322 325 327 327 326 325
305 305 305 305 305 304 305 304 304 304 304 304 304 304 304 304 305 305 304 303 302 302 301 300 299 298 298 300 302 304 307 309 312 315 316 318 320 322 325 326 326 326
304 304 304 304 304 304 304 304 304 304 304 304 304 304 303 303 303 304 304 303 303 302 301 300 299 298 297 298 300 302 305 307 310 312 314 315 316 319 322 324 324 324
303 303 303 303 303 303 303 303 303 303 303 303 303 303 303 302 302 302 303 303 303 302 301 300 299 298 297 296 297 299 302 305 306 308 311 312 313 316 320 321 320 319
303 303 303 302 302 302 302 302 302 302 303 303 303 303 302 302 301 301 301 301 301 301 300 300 298 297 296 296 296 297 299 301 301 303 307 309 310 313 314 314 313 315
302 302 302 302 302 302 301 301 301 301 301 302 302 302 302 301 301 301 301 300 300 300 299 299 298 297 296 296 296 296 296 297 298 299 302 305 306 308 309 309 310 312
302 302 302 301 301 301 301 300 300 300 300 301 301 301 301 301 301 301 300 300 300 299 298 298 297 297 297 296 296 296 296 296 296 296 298 300 301 302 304 305 306 309
Wind_Speed
15 16 16 15 15 16 18 20 20 20 19 19 20 20 21 22 22 22 22 21 20 22 22 22 24 24 22 21 21 22 21 21 20 20 21 23 24 23 23 24 25 24
16 17 17 16 16 17 19 20 21 21 20 20 21 21 22 23 23 23 22 19 20 23 24 24 25 24 24 24 21 19 18 19 19 19 20 22 24 23 23 24 25 24
17 17 18 18 17 18 19 19 20 21 22 22 23 23 22 22 23 22 21 21 22 25 25 25 26 26 26 26 24 20 19 21 21 20 20 22 22 23 24 24 25 25
18 17 17 17 17 18 19 19 20 22 23 23 24 24 23 23 23 22 22 22 22 24 25 25 26 25 25 25 24 21 20 21 21 20 20 21 21 21 22 23 24 25
18 17 17 17 18 19 19 20 20 22 23 23 24 25 25 24 24 24 23 21 21 23 25 25 26 25 25 25 24 24 23 22 22 21 20 21 22 21 22 22 22 24
18 18 18 18 19 20 20 20 21 22 22 23 23 24 25 25 26 25 23 22 23 25 26 27 27 25 25 26 26 26 25 23 22 22 21 21 21 21 23 24 23 23
19 19 19 20 20 20 20 20 21 22 22 22 23 23 24 26 27 25 24 24 25 27 28 29 27 24 24 25 25 26 24 21 21 22 21 21 22 22 23 23 23 22
19 19 20 21 21 20 21 21 22 23 23 22 22 23 24 25 26 25 24 26 28 29 30 30 27 24 23 21 21 22 20 19 21 21 19 20 21 22 22 23 24 23
20 20 21 22 22 21 22 23 22 25 26 23 22 23 24 25 27 27 27 29 31 30 29 29 26 22 19 16 17 19 18 17 17 18 20 20 20 20 21 24 24 22
21 21 22 23 23 22 23 24 22 25 29 27 23 24 24 24 27 30 32 32 33 30 25 24 21 19 17 15 16 17 17 16 13 14 17 19 19 18 19 25 25 21
22 23 23 23 24 23 23 24 23 24 28 29 26 25 25 25 27 31 34 33 33 31 24 19 18 16 17 16 14 14 13 14 13 15 17 18 18 17 19 23 24 23
23 23 23 24 24 24 24 24 24 24 27 28 28 27 26 28 28 30 33 34 33 32 27 22 20 19 18 17 15 12 11 12 15 17 18 18 19 19 19 19 18 20
23 23 24 24 24 24 24 24 25 25 26 28 29 28 27 29 30 30 31 34 32 32 31 28 25 23 21 21 20 16 13 11 13 15 16 17 20 21 21 18 15 18
23 23 24 25 24 24 25 25 25 25 25 27 30 31 29 29 29 29 30 32 30 30 32 31 30 30 28 27 25 21 16 13 13 13 14 16 19 20 18 16 16 19
22 22 23 24 24 24 25 26 25 25 25 26 28 31 33 33 31 29 31 34 32 30 31 32 35 37 34 31 28 24 20 15 15 14 13 15 17 18 17 16 17 19
21 22 22 23 24 24 25 25 25 25 25 26 27 29 34 38 38 33 33 35 34 33 31 31 36 41 38 32 28 25 23 18 16 15 13 13 15 17 17 16 16 18
21 22 22 23 24 24 25 25 25 25 25 25 27 28 31 36 40 38 35 37 38 38 34 31 36 43 40 34 30 27 24 21 18 16 15 14 14 14 16 16 16 16
21 22 22 23 24 24 25 25 25 26 26 25 26 28 29 31 36 37 36 37 39 41 38 33 38 46 44 37 34 29 26 23 20 17 16 16 15 14 15 15 15 15
22 23 23 23 24 24 25 25 26 26 26 26 25 26 27 27 30 33 35 35 36 40 41 37 39 48 48 41 36 33 28 25 22 18 17 17 16 15 15 13 13 15
24 23 23 23 24 24 24 25 26 26 26 26 25 26 27 26 26 28 31 34 35 38 40 37 39 49 51 44 40 35 30 26 23 19 17 16 16 16 16 15 15 15
24 24 24 24 24 24 24 24 24 25 25 25 25 25 26 27 26 26 27 30 33 37 39 36 37 46 52 48 44 39 32 27 24 20 18 16 16 17 16 15 14 12
23 23 24 25 25 26 26 25 24 24 23 23 24 24 25 27 27 26 27 27 29 34 38 35 36 44 50 50 47 42 35 29 26 23 20 19 19 19 15 11 10 10
22 23 24 24 26 26 27 27 26 25 25 23 23 23 25 26 26 26 27 27 28 32 35 34 35 41 47 49 49 46 39 33 28 25 22 21 21 19 13 9 9 9
22 23 23 24 25 26 27 28 27 27 27 25 23 23 23 25 25 24 25 27 28 31 32 31 33 39 44 46 48 47 43 37 31 27 24 23 22 19 13 10 11 11
22 22 22 24 26 25 26 27 27 26 27 26 25 23 22 23 24 24 24 25 27 29 30 31 32 36 41 44 45 46 45 40 34 31 27 24 23 19 16 15 14 13
21 22 23 24 25 25 25 26 25 26 27 27 25 24 22 22 24 24 23 23 24 27 29 30 32 35 39 42 43 44 44 41 38 33 28 24 23 22 20 20 19 16
Wind_Direction
355 352 347 343 339 337 338 336 331 326 323 320 317 314 312 309 305 302 301 299 295 289 285 284 281 276 273 269 263 258 251 244 244 240 228 221 217 214 213 212 212 214
353 349 346 346 344 342 338 334 331 328 324 320 318 315 313 310 307 303 301 298 294 292 291 288 284 279 274 269 265 262 252 244 246 244 234 225 218 216 214 213 216 217
350 348 348 348 348 346 340 335 333 331 326 321 319 320 320 317 311 307 304 299 294 294 292 288 287 286 280 275 272 267 259 251 249 249 244 233 222 218 217 217 220 218
351 351 349 349 350 348 344 340 337 335 332 328 325 326 327 325 321 315 309 303 298 299 300 295 290 287 282 278 272 263 258 252 247 245 245 237 229 226 222 218 219 218
355 354 352 352 351 349 348 347 343 340 336 334 332 331 329 327 327 324 316 310 302 300 304 302 295 289 283 280 271 261 256 251 245 245 245 240 235 236 232 221 217 218
2 1 358 356 354 352 352 351 348 344 339 336 335 333 331 328 326 325 321 315 309 305 305 303 298 291 284 280 273 263 256 249 243 242 243 240 236 235 234 228 220 216
8 6 4 1 357 356 356 353 351 350 345 340 339 338 336 331 328 330 329 323 318 312 309 306 301 294 286 280 273 261 251 247 245 241 241 242 238 231 231 233 224 213
12 9 8 6 3 2 360 356 353 353 351 346 344 345 344 340 340 341 338 332 325 316 310 307 301 296 291 281 270 259 248 244 245 243 244 247 244 236 235 239 230 215
15 12 10 11 9 5 2 359 356 356 358 355 350 351 352 351 352 351 346 341 333 322 312 307 302 297 296 281 265 260 254 251 250 250 252 252 249 244 243 248 242 223
17 14 13 15 13 8 4 3 1 359 2 3 358 357 358 356 357 358 355 350 346 336 321 313 309 303 303 294 275 267 261 256 258 259 259 258 256 255 255 259 256 236
17 15 16 17 14 11 8 6 6 3 4 6 4 2 2 359 360 3 2 360 359 355 344 335 332 327 324 317 299 284 272 264 269 269 264 262 263 262 261 263 257 238
17 15 16 16 14 14 12 8 9 8 7 8 6 5 5 4 3 5 7 9 10 11 12 11 8 7 2 351 337 323 305 290 289 286 277 274 275 272 267 267 262 243
16 14 14 14 15 15 14 12 12 11 11 10 8 8 8 6 5 4 7 13 16 16 19 23 22 19 13 4 358 353 341 320 306 301 290 281 279 277 269 266 268 257
17 15 14 14 14 15 15 15 13 12 13 11 11 12 11 8 5 2 5 12 16 12 10 14 19 19 13 4 359 355 349 334 319 314 304 290 284 282 277 272 274 270
19 17 16 15 14 15 15 15 14 14 14 13 13 14 13 12 9 6 8 11 13 11 8 7 11 13 10 5 0 355 350 339 323 319 317 308 299 290 284 278 276 274
21 19 19 18 17 16 15 15 15 14 14 14 14 13 12 14 15 13 12 12 12 13 12 7 7 8 5 2 2 357 351 343 328 319 316 316 311 300 291 282 276 275
24 21 20 20 19 17 15 15 15 16 15 14 14 13 10 12 15 16 15 15 16 15 14 9 7 7 4 0 0 357 350 345 334 323 317 317 319 314 304 297 287 281
25 24 24 22 20 18 16 15 15 16 16 13 13 13 11 10 13 14 14 15 15 14 13 11 7 7 5 1 359 356 351 345 338 330 323 316 318 317 311 313 306 293
22 23 24 25 24 21 19 18 17 16 15 13 11 11 11 11 12 13 12 11 11 11 11 10 7 6 6 5 1 356 352 347 340 336 331 323 321 317 308 312 316 302
21 20 20 24 25 23 23 22 21 19 16 13 11 10 11 10 10 13 13 9 8 9 10 9 6 5 6 7 4 0 356 351 346 341 339 335 331 323 309 306 314 311
21 19 18 21 21 21 23 25 24 21 19 17 15 13 12 10 8 11 12 10 8 9 10 10 7 5 7 9 7 4 0 357 355 351 349 348 345 340 330 318 318 317
22 20 19 18 20 21 20 21 22 20 19 21 20 19 16 12 9 10 11 11 10 10 10 10 7 5 8 11 10 8 6 6 5 1 358 357 356 355 350 331 320 320
24 22 19 18 21 23 20 18 20 18 15 16 21 24 23 17 11 10 11 11 12 11 10 10 8 7 10 12 12 11 12 12 10 7 5 3 6 12 12 350 340 343
26 23 21 20 21 24 23 20 19 17 13 11 15 22 25 20 15 12 12 14 15 13 11 11 10 10 13 15 15 15 16 16 13 11 12 10 13 25 33 16 9 13
30 24 22 23 22 24 26 23 19 17 14 11 12 16 21 23 20 15 13 15 16 15 15 14 14 15 17 19 18 18 19 19 17 16 15 12 12 15 16 11 13 19
32 29 25 25 24 24 27 26 21 19 16 13 12 12 16 23 23 17 15 16 15 16 18 19 18 18 20 22 21 21 21 21 22 20 15 13 15 14 10 9 13 16